Flag for U.S.A. Weather past 2 weeks in Jackson, Wyoming, U.S.A.

Now
75 °F

Broken clouds.


Feels Like: 77 °F
Forecast: 52 / 75 °F
Wind: 17 mph from South

Location: Jackson Hole

Current Time: Aug 30, 2015 at 2:55:58 PM

Latest Report: Aug 30, 2015 at 1:51 PM


Visibility: 10 mi

Pressure: 30.08 "Hg (24.17 "Hg at 1901m altitude)

Humidity: 31%

Dew point: 43 °F

Location of JacksonLocation

Historic Weather in Jackson — Graph

°F

Jackson temperature yesterday

Maximum temperature yesterday: 82 °F (at 5:51 PM)
Minimum temperature yesterday: 43 °F (at 6:55 AM)
Average temperature yesterday: 59 °F

Past Weeks' High & Low Weather Summary

 TemperatureHumidityPressure
High88 °F (Aug 25, 2:15 PM)100% (Aug 23, 6:35 AM)30.43 "Hg (Aug 23, 6:35 AM)
Low30 °F (Aug 23, 6:35 AM)12% (Aug 22, 4:15 PM)29.87 "Hg (Aug 21, 7:55 PM)
Average58 °F53%30.21 "Hg
* Reported Aug 15 12:15 PM — Aug 30 12:51 PM, Jackson, Weather by CustomWeather, © 2015

Note: Actual official high and low records may vary slightly from our data, if they occured in-between our weather recording intervals... More about our weather records

Advertising

Jackson weather history for previous 24 hours

 ConditionsComfort  
Time TempWeatherWind HumidityBarometerVisibility
12:51 PM
Sun, Aug 30
73 °FPartly sunny.13 mph33%30.10 "Hg10 mi
11:55 AM72 °FPassing clouds.8 mph36%30.12 "Hg10 mi
10:51 AM72 °FSunny.9 mph36%30.13 "Hg10 mi
10:35 AM70 °FSunny.12 mph38%30.12 "Hg10 mi
10:15 AM70 °FSunny.12 mph38%30.12 "Hg10 mi
9:55 AM70 °FSunny.14 mph38%30.12 "Hg10 mi
9:35 AM68 °FSunny.16 mph40%30.12 "Hg10 mi
8:55 AM61 °FSunny.6 mph68%30.12 "Hg10 mi
8:35 AM61 °FSunny.6 mph68%30.12 "Hg10 mi
8:15 AM55 °FScattered clouds.N/A88%30.11 "Hg10 mi
7:51 AM55 °FPassing clouds.No wind88%30.10 "Hg10 mi
7:35 AM54 °FPassing clouds.3 mph94%30.11 "Hg10 mi
7:15 AM54 °FOvercast.No wind88%30.10 "Hg10 mi
6:55 AM54 °FPassing clouds.No wind88%30.10 "Hg10 mi
6:35 AM54 °FPassing clouds.No wind88%30.09 "Hg10 mi
6:15 AM54 °FPassing clouds.No wind94%30.08 "Hg10 mi
5:55 AM55 °FPassing clouds.6 mph88%30.07 "Hg10 mi
5:35 AM54 °FClear.No wind94%30.08 "Hg10 mi
4:55 AM54 °FPassing clouds.6 mph88%30.08 "Hg10 mi
4:15 AM55 °FPassing clouds.No wind88%30.07 "Hg10 mi
3:55 AM57 °FPassing clouds.6 mph82%30.08 "Hg10 mi
3:35 AM57 °FPartly cloudy.5 mph77%30.08 "Hg10 mi
3:15 AM59 °FPassing clouds.8 mph77%30.08 "Hg10 mi
2:55 AM57 °FThunderstorms. Partly cloudy.6 mph82%30.09 "Hg10 mi
2:15 AM57 °FThundershowers. Passing clouds.9 mph77%30.09 "Hg10 mi
1:55 AM59 °FPassing clouds.9 mph72%30.11 "Hg10 mi
1:35 AM61 °FPassing clouds.7 mph68%30.09 "Hg10 mi
1:15 AM61 °FPassing clouds.14 mph72%30.10 "Hg10 mi
12:55 AM64 °FThundershowers. Passing clouds.7 mph56%30.11 "Hg10 mi
12:15 AM64 °FThundershowers. Passing clouds.14 mph56%30.16 "Hg10 mi
11:55 PM
Sat, Aug 29
63 °FClear.8 mph56%30.08 "Hg10 mi
11:35 PM64 °FClear.6 mph49%30.08 "Hg10 mi
11:15 PM66 °FClear.10 mph43%30.08 "Hg10 mi
10:55 PM68 °FClear.3 mph40%30.08 "Hg10 mi
9:55 PM66 °FClear.No wind43%30.08 "Hg10 mi
8:55 PM66 °FSunny.6 mph40%30.09 "Hg10 mi
7:51 PM72 °FSunny.5 mph36%30.08 "Hg10 mi
6:51 PM79 °FSunny.7 mph28%30.09 "Hg10 mi
5:51 PM82 °FSunny.16 mph21%30.10 "Hg10 mi
4:51 PM81 °FSunny.12 mph24%30.13 "Hg10 mi
3:51 PM81 °FSunny.9 mph28%30.15 "Hg10 mi
2:51 PM79 °FPartly sunny.7 mph24%30.18 "Hg10 mi
Weather by CustomWeather, © 2015

See weather overviewHow to use our weather pages